SCO16WX EGPF-KEWR

Flight info

Callsign SCO16WX
Flight time N/A
Altitude 38000
Route GOMUP/M085F380 DCT 5815N DCT 5820N DCT 5830N DCT 5840N DCT 5750N DCT CUDDY/N0487F380 DCT YBC/N0483F400 DCT IMORI DCT HANAA FLOSI4
Aircraft A388/J-SADE2E3FGHIJ3J4J5M1RWXY/LB1D1

Departure

Time 2026-04-30 03:21
Airport Glasgow Airport (EGPF)

Arrival

Time N/A
Airport Newark Liberty International Airport (KEWR)
Time Latitude Longitude Altitude Speed Heading
2026-04-30 03:04 55.86774 -4.43133 36 ft 0 kts 163°
2026-04-30 03:14 55.86779 -4.43135 35 ft 1 kts 163°
2026-04-30 03:14 55.86786 -4.43139 37 ft 1 kts 163°
2026-04-30 03:15 55.86792 -4.43142 36 ft 1 kts 163°
2026-04-30 03:15 55.86799 -4.43146 36 ft 1 kts 163°
2026-04-30 03:15 55.86805 -4.43147 36 ft 1 kts 175°
2026-04-30 03:15 55.86812 -4.43145 37 ft 1 kts 188°
2026-04-30 03:16 55.86819 -4.43141 33 ft 1 kts 202°
2026-04-30 03:16 55.86824 -4.43133 33 ft 1 kts 216°
2026-04-30 03:16 55.86829 -4.43124 33 ft 1 kts 230°
2026-04-30 03:16 55.86832 -4.43113 34 ft 1 kts 244°
2026-04-30 03:17 55.86833 -4.43108 33 ft 1 kts 251°
2026-04-30 03:17 55.86826 -4.43135 33 ft 4 kts 244°
2026-04-30 03:17 55.86812 -4.43202 37 ft 8 kts 257°
2026-04-30 03:17 55.86797 -4.43315 37 ft 11 kts 257°
2026-04-30 03:18 55.86782 -4.43422 36 ft 15 kts 255°
2026-04-30 03:18 55.86738 -4.43682 35 ft 19 kts 247°
2026-04-30 03:18 55.86689 -4.43822 33 ft 20 kts 231°
2026-04-30 03:18 55.86596 -4.44005 35 ft 20 kts 226°
2026-04-30 03:19 55.86497 -4.44186 39 ft 20 kts 226°
2026-04-30 03:19 55.86397 -4.44372 38 ft 22 kts 226°
2026-04-30 03:19 55.86287 -4.44577 35 ft 24 kts 231°
2026-04-30 03:19 55.86294 -4.44757 37 ft 13 kts 318°
2026-04-30 03:20 55.86360 -4.44815 38 ft 10 kts
2026-04-30 03:20 55.86421 -4.44765 38 ft 9 kts 41°
2026-04-30 03:20 55.86593 -4.44451 42 ft 75 kts 47°
2026-04-30 03:20 55.87117 -4.43464 40 ft 140 kts 46°
2026-04-30 03:21 55.87868 -4.42048 231 ft 164 kts 47°
2026-04-30 03:21 55.88677 -4.40600 739 ft 175 kts 45°
2026-04-30 03:21 55.89638 -4.39034 1136 ft 199 kts 45°
2026-04-30 03:21 55.90704 -4.37221 1574 ft 226 kts 39°
2026-04-30 03:22 55.92237 -4.36059 1990 ft 258 kts 11°
2026-04-30 03:22 55.94120 -4.36329 2421 ft 287 kts 344°
2026-04-30 03:22 55.95912 -4.38140 2825 ft 304 kts 317°
2026-04-30 03:22 55.97115 -4.41020 3171 ft 277 kts 290°
2026-04-30 03:23 55.97474 -4.44225 3558 ft 263 kts 268°
2026-04-30 03:23 55.97508 -4.47565 3956 ft 277 kts 269°
2026-04-30 03:23 55.97745 -4.51085 4345 ft 294 kts 278°
2026-04-30 03:23 55.98260 -4.54711 4745 ft 309 kts 284°
2026-04-30 03:24 55.98959 -4.58376 5129 ft 321 kts 288°
2026-04-30 03:24 55.99765 -4.62174 5518 ft 333 kts 289°
2026-04-30 03:24 56.00618 -4.66092 5897 ft 343 kts 289°
2026-04-30 03:24 56.01492 -4.70116 6270 ft 352 kts 289°
2026-04-30 03:25 56.02381 -4.74245 6770 ft 359 kts 289°
2026-04-30 03:25 56.03271 -4.78417 7475 ft 358 kts 288°
2026-04-30 03:25 56.04158 -4.82599 8042 ft 362 kts 288°
2026-04-30 03:25 56.05052 -4.86835 8540 ft 368 kts 288°
2026-04-30 03:26 56.05960 -4.91156 9056 ft 373 kts 288°
2026-04-30 03:26 56.06880 -4.95538 9577 ft 379 kts 287°
2026-04-30 03:26 56.07813 -4.99986 10082 ft 383 kts 287°
2026-04-30 03:26 56.08752 -5.04488 10583 ft 388 kts 287°
2026-04-30 03:27 56.09698 -5.09031 11072 ft 392 kts 287°
2026-04-30 03:27 56.10653 -5.13605 11760 ft 390 kts 287°
2026-04-30 03:27 56.11597 -5.18134 12506 ft 386 kts 287°
2026-04-30 03:27 56.12531 -5.22630 13270 ft 383 kts 287°
2026-04-30 03:28 56.13451 -5.27076 14058 ft 379 kts 287°
2026-04-30 03:28 56.14348 -5.31420 14769 ft 374 kts 287°
2026-04-30 03:28 56.15254 -5.35818 15493 ft 369 kts 287°
2026-04-30 03:28 56.16137 -5.40115 16221 ft 364 kts 286°
2026-04-30 03:29 56.16990 -5.44273 16965 ft 358 kts 286°
2026-04-30 03:29 56.17841 -5.48430 17734 ft 351 kts 286°
2026-04-30 03:29 56.18671 -5.52493 18527 ft 343 kts 286°
2026-04-30 03:29 56.19482 -5.56466 19227 ft 334 kts 285°
2026-04-30 03:30 56.20274 -5.60361 19776 ft 331 kts 285°
2026-04-30 03:30 56.21057 -5.64233 20245 ft 329 kts 285°
2026-04-30 03:30 56.21836 -5.68086 20748 ft 327 kts 285°
2026-04-30 03:30 56.22612 -5.71927 21198 ft 326 kts 285°
2026-04-30 03:31 56.23383 -5.75756 21577 ft 327 kts 285°
2026-04-30 03:31 56.24157 -5.79605 21936 ft 329 kts 285°
2026-04-30 03:31 56.24942 -5.83519 22199 ft 335 kts 285°
2026-04-30 03:31 56.25735 -5.87482 22464 ft 340 kts 285°
2026-04-30 03:32 56.26541 -5.91512 22732 ft 345 kts 285°
2026-04-30 03:32 56.27355 -5.95587 23005 ft 350 kts 285°
2026-04-30 03:32 56.28183 -5.99737 23280 ft 354 kts 285°
2026-04-30 03:32 56.29020 -6.03948 23557 ft 359 kts 285°
2026-04-30 03:33 56.29867 -6.08214 23835 ft 365 kts 285°
2026-04-30 03:33 56.30726 -6.12550 24085 ft 370 kts 285°
2026-04-30 03:33 56.31596 -6.16950 24325 ft 376 kts 285°
2026-04-30 03:33 56.32478 -6.21420 24536 ft 381 kts 285°
2026-04-30 03:34 56.33369 -6.25948 24782 ft 386 kts 285°
2026-04-30 03:34 56.34270 -6.30540 25025 ft 391 kts 285°
2026-04-30 03:34 56.35178 -6.35172 25266 ft 395 kts 285°
2026-04-30 03:34 56.36097 -6.39879 25513 ft 400 kts 285°
2026-04-30 03:35 56.37026 -6.44643 25763 ft 405 kts 285°
2026-04-30 03:35 56.37961 -6.49455 26012 ft 409 kts 285°
2026-04-30 03:35 56.38908 -6.54333 26258 ft 414 kts 285°
2026-04-30 03:35 56.39864 -6.59277 26517 ft 419 kts 285°
2026-04-30 03:36 56.40826 -6.64263 26777 ft 423 kts 285°
2026-04-30 03:36 56.41796 -6.69302 27027 ft 428 kts 285°
2026-04-30 03:36 56.42775 -6.74402 27279 ft 432 kts 285°
2026-04-30 03:36 56.43762 -6.79561 27541 ft 437 kts 285°
2026-04-30 03:37 56.44758 -6.84779 27814 ft 441 kts 285°
2026-04-30 03:37 56.45761 -6.90046 28075 ft 446 kts 285°
2026-04-30 03:37 56.46772 -6.95375 28350 ft 450 kts 285°
2026-04-30 03:37 56.47794 -7.00772 28618 ft 455 kts 285°
2026-04-30 03:38 56.48808 -7.06143 28889 ft 459 kts 285°
2026-04-30 03:38 56.49848 -7.11667 29166 ft 464 kts 285°
2026-04-30 03:38 56.50880 -7.17164 29440 ft 468 kts 285°
2026-04-30 03:38 56.51943 -7.22843 29732 ft 473 kts 284°
2026-04-30 03:39 56.52992 -7.28468 30015 ft 477 kts 284°
2026-04-30 03:39 56.54053 -7.34170 30300 ft 482 kts 284°
2026-04-30 03:39 56.55118 -7.39915 30567 ft 486 kts 284°
2026-04-30 03:39 56.56199 -7.45759 30805 ft 490 kts 284°
2026-04-30 03:40 56.57284 -7.51645 31040 ft 494 kts 284°
2026-04-30 03:40 56.58376 -7.57590 31301 ft 498 kts 284°
2026-04-30 03:40 56.59470 -7.63563 31560 ft 502 kts 284°
2026-04-30 03:40 56.60575 -7.69614 31817 ft 506 kts 284°
2026-04-30 03:41 56.61685 -7.75716 32077 ft 510 kts 284°
2026-04-30 03:41 56.62797 -7.81846 32343 ft 513 kts 284°
2026-04-30 03:41 56.63913 -7.88017 32703 ft 515 kts 284°
2026-04-30 03:41 56.65025 -7.94177 33329 ft 510 kts 284°
2026-04-30 03:42 56.66115 -8.00234 34149 ft 502 kts 284°
2026-04-30 03:42 56.67191 -8.06233 34875 ft 493 kts 284°
2026-04-30 03:42 56.68239 -8.12098 35612 ft 484 kts 284°
2026-04-30 03:42 56.69264 -8.17855 36349 ft 473 kts 283°
2026-04-30 03:43 56.70264 -8.23494 37124 ft 462 kts 283°
2026-04-30 03:43 56.71236 -8.28991 37905 ft 450 kts 283°
2026-04-30 03:43 56.72187 -8.34395 38209 ft 450 kts 283°
2026-04-30 03:43 56.73139 -8.39839 38305 ft 453 kts 283°
2026-04-30 03:44 56.75072 -8.50934 38293 ft 464 kts 283°
2026-04-30 03:44 56.77045 -8.62293 38290 ft 476 kts 283°
2026-04-30 03:45 56.79054 -8.73921 38287 ft 484 kts 283°
2026-04-30 03:45 56.81054 -8.85547 38285 ft 478 kts 283°
2026-04-30 03:46 56.83020 -8.97081 38285 ft 480 kts 283°
2026-04-30 03:46 56.85005 -9.08800 38282 ft 480 kts 283°
2026-04-30 03:47 56.86951 -9.20362 38281 ft 480 kts 283°
2026-04-30 03:47 56.88899 -9.32018 38279 ft 479 kts 283°
2026-04-30 03:48 56.90836 -9.43684 38273 ft 479 kts 283°